Retour au catalogue

FENGYUN 1C DEB

LostSSO
NORAD 46996·DEBRIS·🇨🇳 China

Lancé May 10, 1999 depuis Taiyuan Satellite Launch Center

Loading…

Prochains Passages (prochaines 24 heures)

TLE

PériméSource: Space-Track

Époque: Apr 28, 2024, 10:30 UTC

1 46996U 99025EZW 24119.43805378  .00005989  00000-0  32177-2 0  9997
2 46996  98.9618 197.7750 0054802 339.4131  20.4832 14.12506480535627

Suivez FENGYUN 1C DEB en temps réel avec AllMySat

Download on the App Store